FW2250 Weather Reports


time (UTC)temp
C
wind
direction
speed
KPH
gust
KPH
rain 1hr
cm
rain 24hr
cm
rain mn
cm
humidity
%
barometer
mb
20260507221535 27 123 4.8 14.5 0.00 0.00 0.00 90 1018.2
20260507220035 27 123 4.8 19.3 0.00 0.00 0.00 88 1018.2
20260507214534 28 123 4.8 20.9 0.00 0.00 0.00 83 1017.8
20260507213033 30 123 6.4 17.7 0.00 0.00 0.00 80 1017.7
20260507211536 33 123 8.0 19.3 0.00 0.00 0.00 71 1017.6
20260507210133 31 123 4.8 17.7 0.00 0.00 0.00 77 1017.6
20260507204531 31 123 8.0 20.9 0.00 0.00 0.00 76 1017.8
20260507203028 34 123 3.2 19.3 0.00 0.00 0.00 70 1017.7
20260507201530 32 123 4.8 19.3 0.00 0.00 0.00 71 1017.8
20260507200027 34 123 8.0 16.1 0.00 0.00 0.00 69 1018.0
20260507194525 33 123 8.0 22.5 0.00 0.00 0.00 70 1018.2
20260507193024 31 123 8.0 19.3 0.00 0.00 0.00 74 1018.3
20260507191524 31 123 4.8 19.3 0.00 0.00 0.00 75 1018.1
20260507190026 33 123 1.6 17.7 0.00 0.00 0.00 71 1018.2
20260507184521 33 123 4.8 20.9 0.00 0.00 0.00 71 1018.3
20260507183022 33 123 4.8 19.3 0.00 0.00 0.00 71 1018.5
20260507181517 36 123 6.4 22.5 0.00 0.00 0.00 63 1018.7
20260507180019 38 123 4.8 16.1 0.00 0.00 0.00 60 1018.7
20260507174516 37 123 8.0 14.5 0.00 0.00 0.00 62 1018.8
20260507173015 34 123 3.2 17.7 0.00 0.00 0.00 68 1019.0
20260507171514 33 123 1.6 16.1 0.00 0.00 0.00 73 1019.3
20260507170013 36 123 4.8 19.3 0.00 0.00 0.00 65 1019.3
20260507164513 36 123 8.0 17.7 0.00 0.00 0.00 67 1019.6
20260507163015 35 123 6.4 20.9 0.00 0.00 0.00 67 1019.5
20260507161511 34 123 6.4 22.5 0.00 0.00 0.00 70 1019.7
20260507160012 32 123 3.2 22.5 0.00 0.00 0.00 75 1019.8
20260507154510 31 123 3.2 11.3 0.00 0.00 0.00 75 1020.1
20260507153009 33 123 0.0 16.1 0.00 0.00 0.00 71 1020.0
20260507151509 35 123 1.6 12.9 0.00 0.00 0.00 65 1020.0
20260507150011 40 123 0.0 8.0 0.00 0.00 0.00 54 1020.4
20260507144504 36 123 0.0 14.5 0.00 0.00 0.00 62 1020.4
20260507143002 35 123 1.6 9.7 0.00 0.00 0.00 63 1020.5
20260507141501 35 123 1.6 9.7 0.00 0.00 0.00 61 1020.7
20260507140111 37 123 3.2 11.3 0.00 0.00 0.00 58 1020.7
20260507134555 36 123 0.0 6.4 0.00 0.00 0.00 62 1020.7
20260507133052 34 123 1.6 11.3 0.00 0.00 0.00 63 1020.6
20260507131550 35 123 1.6 8.0 0.00 0.00 0.00 63 1020.6
20260507130046 33 123 3.2 9.7 0.00 0.00 0.00 64 1020.4
20260507124542 33 123 1.6 6.4 0.00 0.00 0.00 67 1020.5
20260507123039 32 123 1.6 6.4 0.00 0.00 0.00 69 1020.4
20260507121537 32 123 1.6 9.7 0.00 0.00 0.00 70 1020.2
20260507120034 -17 0.0 0.0 0.00 0.00 0.00 1019.9
20260507114529 -17 0.0 0.0 0.00 0.00 0.00 1019.9
20260507113025 -17 0.0 0.0 0.00 0.00 0.00 1019.5
20260507111521 -17 0.0 0.0 0.00 0.00 0.00 1019.6
20260507110017 -17 0.0 0.0 0.00 0.00 0.00 1019.5
20260507104520 -17 0.0 0.0 0.00 0.00 0.00 1019.2
20260507103009 -17 0.0 0.0 0.00 0.00 0.00 1019.2
20260507101508 -17 0.0 0.0 0.00 0.00 0.00 1019.0
20260507094600 -17 0.0 0.0 0.00 0.00 0.00 1019.0
20260507093050 -17 0.0 0.0 0.00 0.00 0.00 1018.7
20260507091558 -17 0.0 0.0 0.00 0.00 0.00 1018.7
20260507084537 22 123 0.0 0.0 0.00 0.00 0.00 99 1018.9
20260507083036 22 123 0.0 0.0 0.00 0.00 0.00 99 1019.0
20260507081549 22 123 0.0 0.0 0.00 0.00 0.00 100 1018.9
20260507080033 22 123 0.0 0.0 0.00 0.00 0.00 100 1018.9
20260507074536 22 123 0.0 0.0 0.00 0.00 0.00 100 1019.0
20260507073029 22 123 0.0 0.0 0.00 0.00 0.00 100 1018.9
20260507071528 22 123 0.0 0.0 0.00 0.00 0.00 100 1019.1
20260507070026 22 123 0.0 1.6 0.00 0.00 0.00 100 1019.2
20260507064526 23 123 0.0 1.6 0.00 0.00 0.00 100 1019.2
20260507063021 23 123 0.0 3.2 0.00 0.00 0.00 100 1019.4
20260507061529 23 123 0.0 3.2 0.00 0.00 0.00 100 1019.6
20260507060027 23 123 0.0 1.6 0.00 0.00 0.00 100 1019.7
20260507054515 23 123 0.0 1.6 0.00 0.00 0.00 100 1019.8
20260507053015 24 123 0.0 6.4 0.00 0.00 0.00 100 1020.1
20260507051511 24 123 3.2 6.4 0.00 0.00 0.00 100 1020.2
20260507050020 24 123 1.6 6.4 0.00 0.00 0.00 100 1020.4
20260507044515 24 123 1.6 9.7 0.00 0.00 0.00 100 1020.6
20260507043004 24 123 1.6 6.4 0.00 0.00 0.00 100 1020.7
20260507041502 25 123 1.6 11.3 0.00 0.00 0.00 100 1020.8
20260507040100 25 123 1.6 4.8 0.00 0.00 0.00 100 1021.0
20260507034603 25 124 0.0 1.6 0.00 0.00 0.00 100 1021.1
20260507033059 25 123 0.0 0.0 0.00 0.00 0.00 100 1021.2
20260507031558 25 123 0.0 0.0 0.00 0.00 0.00 100 1021.3
20260507030107 25 123 0.0 6.4 0.00 0.00 0.00 100 1021.4
20260507024612 26 124 0.0 6.4 0.00 0.00 0.00 99 1021.3
20260507023056 25 123 1.6 4.8 0.00 0.00 0.00 100 1021.4
20260507021615 25 123 0.0 1.6 0.00 0.00 0.00 100 1021.3
20260507020104 25 123 0.0 4.8 0.00 0.00 0.00 100 1021.3
20260507014612 25 123 1.6 4.8 0.00 0.00 0.00 99 1021.1
20260507013056 25 123 0.0 4.8 0.00 0.00 0.00 99 1021.0
20260507011553 25 123 0.0 4.8 0.00 0.00 0.00 99 1020.9
20260507010107 25 123 0.0 3.2 0.00 0.00 0.00 98 1020.9
20260507004551 25 123 0.0 1.6 0.00 0.97 0.00 98 1020.8
20260507003051 25 123 0.0 3.2 0.00 0.97 0.00 98 1020.7
20260507001553 25 123 0.0 8.0 0.00 0.97 0.00 97 1020.5
20260507000049 26 123 1.6 6.4 0.00 0.97 0.00 96 1020.2
20260506234547 26 123 1.6 8.0 0.00 0.97 0.00 96 1020.3
20260506233052 26 123 0.0 6.4 0.00 0.97 0.00 95 1020.0
20260506231547 26 123 0.0 8.0 0.00 0.97 0.00 94 1020.0
20260506230046 26 123 0.0 9.7 0.00 0.97 0.00 93 1019.6
20260506224544 27 123 1.6 9.7 0.00 0.97 0.00 91 1019.5
20260506223046 27 123 3.2 11.3 0.00 0.97 0.00 88 1019.3